TimeEDT,TemperatureF,Dew PointF,Humidity,Sea Level PressureIn,VisibilityMPH,Wind Direction,Wind SpeedMPH,Gust SpeedMPH,PrecipitationIn,Events,Conditions,WindDirDegrees,DateUTC
12:16 AM,78.4,72.9,83,30.21,10.0,WSW,4.6,-,N/A,,Scattered Clouds,250,2013-07-17 04:16:00
12:36 AM,78.1,72.1,82,30.21,10.0,WSW,5.8,-,N/A,,Clear,240,2013-07-17 04:36:00
12:56 AM,77.9,71.6,81,30.20,10.0,WSW,5.8,-,N/A,,Clear,240,2013-07-17 04:56:00
1:16 AM,77.4,70.9,80,30.20,10.0,WSW,6.9,-,N/A,,Clear,240,2013-07-17 05:16:00
1:35 AM,77.0,70.7,81,30.20,10.0,WSW,6.9,-,N/A,,Clear,240,2013-07-17 05:35:00
1:56 AM,76.1,70.3,82,30.20,10.0,WSW,6.9,-,N/A,,Clear,250,2013-07-17 05:56:00
2:16 AM,75.6,70.2,83,30.19,10.0,WSW,6.9,-,N/A,,Clear,240,2013-07-17 06:16:00
2:36 AM,75.0,70.0,84,30.19,10.0,WSW,4.6,-,N/A,,Clear,250,2013-07-17 06:36:00
2:56 AM,74.3,69.8,86,30.19,10.0,WSW,4.6,-,N/A,,Clear,250,2013-07-17 06:56:00
3:15 AM,74.3,69.8,86,30.19,10.0,West,5.8,-,N/A,,Clear,260,2013-07-17 07:15:00
3:36 AM,73.9,69.4,86,30.19,10.0,West,4.6,-,N/A,,Clear,260,2013-07-17 07:36:00
3:56 AM,73.6,69.3,86,30.19,10.0,West,4.6,-,N/A,,Clear,270,2013-07-17 07:56:00
4:16 AM,73.0,68.9,87,30.19,10.0,WSW,4.6,-,N/A,,Clear,250,2013-07-17 08:16:00
4:36 AM,72.9,68.9,87,30.19,10.0,WSW,5.8,-,N/A,,Clear,240,2013-07-17 08:36:00
4:56 AM,73.0,68.4,85,30.20,10.0,West,4.6,-,N/A,,Clear,270,2013-07-17 08:56:00
5:16 AM,72.9,68.2,85,30.20,10.0,WSW,3.5,-,N/A,,Clear,250,2013-07-17 09:16:00
5:35 AM,72.9,68.2,85,30.20,10.0,West,3.5,-,N/A,,Clear,280,2013-07-17 09:35:00
5:56 AM,72.9,68.0,85,30.21,10.0,Calm,Calm,-,N/A,,Clear,0,2013-07-17 09:56:00
6:50 AM,71.6,68.0,88,30.21,-9999.0,Calm,Calm,-,N/A,,Clear,0,2013-07-17 10:50:00
7:50 AM,73.4,68.0,83,30.22,10.0,Calm,Calm,-,N/A,,Clear,0,2013-07-17 11:50:00
8:50 AM,78.8,69.8,74,30.23,10.0,Calm,Calm,-,N/A,,Clear,0,2013-07-17 12:50:00
9:50 AM,82.4,68.0,62,30.23,10.0,West,8.1,-,N/A,,Clear,270,2013-07-17 13:50:00
10:50 AM,84.2,68.0,58,30.22,10.0,NW,10.4,-,N/A,,Clear,310,2013-07-17 14:50:00
11:50 AM,86.0,66.2,51,30.21,10.0,WNW,9.2,-,N/A,,Scattered Clouds,290,2013-07-17 15:50:00
12:50 PM,89.6,66.2,46,30.21,10.0,West,12.7,-,N/A,,Scattered Clouds,280,2013-07-17 16:50:00
1:50 PM,87.8,64.4,46,30.20,10.0,West,13.8,23.0,N/A,,Mostly Cloudy,280,2013-07-17 17:50:00
2:50 PM,89.6,64.4,43,30.18,10.0,West,15.0,20.7,N/A,,Mostly Cloudy,260,2013-07-17 18:50:00
3:55 PM,82.4,69.8,66,30.17,10.0,NW,8.1,-,N/A,Rain,Light Rain,320,2013-07-17 19:55:00
4:50 PM,82.4,68.0,62,30.15,10.0,NW,8.1,19.6,N/A,Rain,Light Rain,320,2013-07-17 20:50:00
5:50 PM,87.8,69.8,55,30.14,10.0,NW,8.1,-,N/A,,Mostly Cloudy,310,2013-07-17 21:50:00
6:50 PM,80.6,69.8,70,30.15,10.0,NNW,10.4,-,N/A,,Mostly Cloudy,340,2013-07-17 22:50:00
7:50 PM,80.6,69.8,70,30.14,10.0,ENE,4.6,-,N/A,,Scattered Clouds,60,2013-07-17 23:50:00
8:50 PM,75.2,69.8,83,30.17,10.0,NE,6.9,-,N/A,,Mostly Cloudy,40,2013-07-18 00:50:00
9:45 PM,71.6,68.0,88,30.15,10.0,NE,3.5,-,N/A,,Mostly Cloudy,40,2013-07-18 01:45:00
10:16 PM,70.2,66.7,89,30.15,10.0,NNW,4.6,-,N/A,,Mostly Cloudy,340,2013-07-18 02:16:00
10:36 PM,69.6,67.1,92,30.16,10.0,Calm,Calm,-,N/A,,Scattered Clouds,0,2013-07-18 02:36:00
10:56 PM,69.1,66.6,92,30.15,10.0,Calm,Calm,-,N/A,Thunderstorm,Scattered Clouds,0,2013-07-18 02:56:00
11:16 PM,70.0,66.7,89,30.15,10.0,SW,4.6,-,N/A,Thunderstorm,Scattered Clouds,220,2013-07-18 03:16:00
11:36 PM,71.6,67.3,86,30.15,10.0,SSW,6.9,-,N/A,Thunderstorm,Scattered Clouds,210,2013-07-18 03:36:00
11:56 PM,71.6,68.2,89,30.15,10.0,Calm,Calm,-,N/A,Rain,Light Rain,0,2013-07-18 03:56:00